User: anonymous   Login
Location: Ústí nad Labem
(50.6611°N, 14.0531°E)
Time: 02:44:47
(UTC+02:00)
Language:

Transit 4A - Orbit

View from above orbital plane
View from above orbital plane
View from above satellite
View from above satellite

Ground track
Ground track

The orbit data is extracted from the following two-line orbital elements,

1 00116U 61015A   24107.52531250  .00000225  00000-0  23116-3 0  9993
2 00116  66.8122  27.5617 0068793 109.7997 251.0517 13.92020513186505
Epoch (UTC): 16 April 2024 12:36:27
Eccentricity: 0.0068793
inclination: 66.8122°
perigee height: 871 km
apogee height: 972 km
right ascension of ascending node: 27.5617°
argument of perigee: 109.7997°
revolutions per day: 13.92020513
mean anomaly at epoch: 251.0517°
orbit number at epoch: 18650

The dashed part of the orbit path shows where the satellite is in the earth's shadow,  

DLR